Terminal Aerodrome Forecast
Issued by NWS Grand Forks, ND

Home | Current Version | Previous Version | Graphics & Text | Print | Product List | Glossary On
Versions: 1 2 3 4 5 6 7 8 9 10 11 12 13 14 15 16
000
FTUS43 KFGF 212300
TAFGFK
TAF
KGFK 212322Z 2200/2224 VRB06KT P6SM BKN040
      TEMPO 2202/2204 VRB25G45KT 2SM TSRA BKN030CB
     FM220600 34012KT P6SM BKN080
     FM221500 35012KT P6SM SKC=

USA.gov is the U.S. government's official web portal to all federal, state and local government web resources and services.